Time,TemperatureF,DewpointF,PressureIn,WindDirection,WindDirectionDegrees,WindSpeedMPH,WindSpeedGustMPH,Humidity,HourlyPrecipIn,Conditions,Clouds,dailyrainin,SoftwareType,DateUTC
2013-08-27 00:01:00,69.0,69.0,29.69,West,274,0.0,0.0,100,0.00,RA,FEW,0.00,WeatherDisplay:10.37,2013-08-27 04:01:00,
2013-08-27 00:06:00,69.0,69.0,29.70,WSW,251,3.5,3.5,100,0.00,CLR,FEW,0.00,WeatherDisplay:10.37,2013-08-27 04:06:00,
2013-08-27 00:11:00,69.0,69.0,29.69,WSW,238,3.5,3.5,100,0.00,CLR,FEW,0.00,WeatherDisplay:10.37,2013-08-27 04:11:00,
2013-08-27 00:16:00,69.1,69.1,29.69,SW,225,2.3,2.3,100,0.00,CLR,FEW,0.00,WeatherDisplay:10.37,2013-08-27 04:16:00,
2013-08-27 00:21:00,69.2,7.9,29.69,SW,225,0.0,0.0,9,0.00,CLR,FEW,0.00,WeatherDisplay:10.37,2013-08-27 04:21:00,
2013-08-27 00:26:00,69.2,21.1,29.69,SW,225,0.0,0.0,16,0.00,CLR,FEW,0.00,WeatherDisplay:10.37,2013-08-27 04:26:00,
2013-08-27 00:31:00,69.3,26.5,29.69,SW,225,0.0,0.0,20,0.00,CLR,FEW,0.00,WeatherDisplay:10.37,2013-08-27 04:31:00,
2013-08-27 00:36:00,69.3,34.8,29.69,SW,225,0.0,0.0,28,0.00,CLR,FEW,0.00,WeatherDisplay:10.37,2013-08-27 04:36:00,
2013-08-27 00:41:00,69.3,40.5,29.69,SW,225,2.3,2.3,35,0.00,CLR,FEW,0.00,WeatherDisplay:10.37,2013-08-27 04:41:00,
2013-08-27 00:46:00,69.3,41.9,29.69,SW,228,3.5,3.5,37,0.01,RA,FEW,0.01,WeatherDisplay:10.37,2013-08-27 04:46:00,
2013-08-27 00:51:00,69.3,45.8,29.69,SW,231,0.0,0.0,43,0.01,RA,FEW,0.01,WeatherDisplay:10.37,2013-08-27 04:51:00,
2013-08-27 00:56:00,69.3,49.3,29.68,SW,231,0.0,0.0,49,0.02,RA,FEW,0.02,WeatherDisplay:10.37,2013-08-27 04:56:00,
2013-08-27 01:01:00,69.3,52.4,29.68,SW,231,0.0,0.0,55,0.03,RA,FEW,0.03,WeatherDisplay:10.37,2013-08-27 05:01:00,
2013-08-27 01:08:00,69.3,53.9,29.68,SW,231,0.0,0.0,58,0.03,,FEW,0.03,WeatherDisplay:10.37,2013-08-27 05:08:00,
2013-08-27 01:13:00,69.4,58.4,29.68,SW,231,0.0,0.0,68,0.03,CLR,FEW,0.03,WeatherDisplay:10.37,2013-08-27 05:13:00,
2013-08-27 01:18:00,69.6,59.8,29.68,SW,231,0.0,0.0,71,0.03,CLR,FEW,0.03,WeatherDisplay:10.37,2013-08-27 05:18:00,
2013-08-27 01:23:00,69.6,60.2,29.68,SW,231,0.0,0.0,72,0.03,CLR,FEW,0.03,WeatherDisplay:10.37,2013-08-27 05:23:00,
2013-08-27 01:28:00,69.5,59.3,29.67,SW,231,0.0,0.0,70,0.04,RA,FEW,0.04,WeatherDisplay:10.37,2013-08-27 05:28:00,
2013-08-27 01:33:00,69.4,59.2,29.67,SW,231,0.0,0.0,70,0.05,RA,FEW,0.05,WeatherDisplay:10.37,2013-08-27 05:33:00,
2013-08-27 01:38:00,69.5,59.3,29.67,SW,231,0.0,0.0,70,0.06,RA,FEW,0.06,WeatherDisplay:10.37,2013-08-27 05:38:00,
2013-08-27 01:43:00,69.5,60.8,29.67,SW,231,0.0,0.0,74,0.06,RA,FEW,0.06,WeatherDisplay:10.37,2013-08-27 05:43:00,
2013-08-27 01:48:00,69.6,60.6,29.66,SW,231,0.0,0.0,73,0.05,CLR,FEW,0.06,WeatherDisplay:10.37,2013-08-27 05:48:00,
2013-08-27 01:53:00,69.6,61.7,29.66,SW,231,0.0,0.0,76,0.05,CLR,FEW,0.06,WeatherDisplay:10.37,2013-08-27 05:53:00,
2013-08-27 01:58:00,69.6,60.6,29.66,SW,231,0.0,0.0,73,0.04,CLR,FEW,0.06,WeatherDisplay:10.37,2013-08-27 05:58:00,
2013-08-27 02:03:00,69.6,60.9,29.65,SW,231,0.0,0.0,74,0.03,CLR,FEW,0.06,WeatherDisplay:10.37,2013-08-27 06:03:00,
2013-08-27 02:08:00,69.5,60.5,29.65,SW,231,0.0,0.0,73,0.03,CLR,FEW,0.06,WeatherDisplay:10.37,2013-08-27 06:08:00,
2013-08-27 02:13:00,69.5,60.8,29.65,SW,231,0.0,0.0,74,0.03,CLR,FEW,0.06,WeatherDisplay:10.37,2013-08-27 06:13:00,
2013-08-27 02:18:00,69.6,61.3,29.65,SW,231,0.0,0.0,75,0.03,CLR,FEW,0.06,WeatherDisplay:10.37,2013-08-27 06:18:00,
2013-08-27 02:23:00,69.6,62.4,29.65,SW,231,0.0,0.0,78,0.03,CLR,FEW,0.06,WeatherDisplay:10.37,2013-08-27 06:23:00,
2013-08-27 02:28:00,69.6,62.4,29.64,SW,231,0.0,0.0,78,0.02,CLR,FEW,0.06,WeatherDisplay:10.37,2013-08-27 06:28:00,
2013-08-27 02:33:00,69.5,62.7,29.65,SW,231,0.0,0.0,79,0.01,CLR,FEW,0.06,WeatherDisplay:10.37,2013-08-27 06:33:00,
2013-08-27 02:38:00,69.5,62.0,29.64,SW,231,0.0,0.0,77,0.00,CLR,FEW,0.06,WeatherDisplay:10.37,2013-08-27 06:38:00,
2013-08-27 02:43:00,69.6,63.9,29.64,SW,231,1.2,1.2,82,0.00,CLR,FEW,0.06,WeatherDisplay:10.37,2013-08-27 06:43:00,
2013-08-27 02:48:00,69.5,64.5,29.64,SW,217,3.5,3.5,84,0.00,CLR,FEW,0.06,WeatherDisplay:10.37,2013-08-27 06:48:00,
2013-08-27 02:53:00,69.6,64.9,29.63,SW,216,1.2,0.0,85,0.00,CLR,FEW,0.06,WeatherDisplay:10.37,2013-08-27 06:53:00,
2013-08-27 02:58:00,69.6,64.5,29.63,SSW,213,2.3,2.3,84,0.00,CLR,FEW,0.06,WeatherDisplay:10.37,2013-08-27 06:58:00,
2013-08-27 03:03:00,69.6,65.6,29.63,SSW,211,3.5,3.5,87,0.00,CLR,FEW,0.06,WeatherDisplay:10.37,2013-08-27 07:03:00,
2013-08-27 03:08:00,69.6,65.6,29.62,SSW,209,3.5,3.5,87,0.00,CLR,FEW,0.06,WeatherDisplay:10.37,2013-08-27 07:08:00,
2013-08-27 03:13:00,69.6,65.2,29.62,SSW,208,2.3,2.3,86,0.00,CLR,FEW,0.06,WeatherDisplay:10.37,2013-08-27 07:13:00,
2013-08-27 03:18:00,69.6,64.2,29.63,SSW,209,3.5,3.5,83,0.00,CLR,FEW,0.06,WeatherDisplay:10.37,2013-08-27 07:18:00,
2013-08-27 03:23:00,69.6,65.2,29.63,SSW,209,0.0,0.0,86,0.00,CLR,FEW,0.06,WeatherDisplay:10.37,2013-08-27 07:23:00,
2013-08-27 03:28:00,69.5,65.1,29.62,SSW,209,0.0,0.0,86,0.00,CLR,FEW,0.06,WeatherDisplay:10.37,2013-08-27 07:28:00,
2013-08-27 03:33:00,69.5,64.8,29.62,SSW,208,0.0,0.0,85,0.00,CLR,FEW,0.06,WeatherDisplay:10.37,2013-08-27 07:33:00,
2013-08-27 03:38:00,69.5,64.8,29.62,SSW,209,0.0,0.0,85,0.00,CLR,FEW,0.06,WeatherDisplay:10.37,2013-08-27 07:38:00,
2013-08-27 03:43:00,69.4,63.7,29.62,SSW,209,0.0,0.0,82,0.00,CLR,FEW,0.06,WeatherDisplay:10.37,2013-08-27 07:43:00,
2013-08-27 03:48:00,69.4,63.3,29.61,SSW,209,0.0,0.0,81,0.00,CLR,FEW,0.06,WeatherDisplay:10.37,2013-08-27 07:48:00,
2013-08-27 03:53:00,69.3,63.9,29.61,SSW,208,1.2,0.0,83,0.00,CLR,FEW,0.06,WeatherDisplay:10.37,2013-08-27 07:53:00,
2013-08-27 03:58:00,69.3,63.2,29.61,SSW,209,3.5,3.5,81,0.00,CLR,FEW,0.06,WeatherDisplay:10.37,2013-08-27 07:58:00,
2013-08-27 04:03:00,69.3,64.3,29.61,SSW,209,0.0,0.0,84,0.00,CLR,FEW,0.06,WeatherDisplay:10.37,2013-08-27 08:03:00,
2013-08-27 04:08:00,69.3,63.9,29.61,SSW,209,0.0,0.0,83,0.00,CLR,FEW,0.06,WeatherDisplay:10.37,2013-08-27 08:08:00,
2013-08-27 04:13:00,69.3,62.9,29.61,SSW,210,0.0,0.0,80,0.00,CLR,FEW,0.06,WeatherDisplay:10.37,2013-08-27 08:13:00,
2013-08-27 04:18:00,69.2,63.5,29.61,SSW,210,0.0,0.0,82,0.00,CLR,FEW,0.06,WeatherDisplay:10.37,2013-08-27 08:18:00,
2013-08-27 04:23:00,69.1,63.4,29.61,SSW,210,0.0,0.0,82,0.01,RA,FEW,0.07,WeatherDisplay:10.37,2013-08-27 08:23:00,
2013-08-27 04:28:00,69.1,62.3,29.61,SSW,210,0.0,0.0,79,0.01,,FEW,0.07,WeatherDisplay:10.37,2013-08-27 08:28:00,
2013-08-27 04:33:00,69.0,62.2,29.61,SSW,210,3.5,3.5,79,0.01,CLR,FEW,0.07,WeatherDisplay:10.37,2013-08-27 08:33:00,
2013-08-27 04:38:00,69.1,63.4,29.60,SSW,212,4.6,4.6,82,0.01,CLR,FEW,0.07,WeatherDisplay:10.37,2013-08-27 08:38:00,
2013-08-27 04:43:00,69.1,63.7,29.61,SSW,207,4.6,4.6,83,0.01,CLR,FEW,0.07,WeatherDisplay:10.37,2013-08-27 08:43:00,
2013-08-27 04:48:00,69.2,63.5,29.61,SW,223,4.6,4.6,82,0.01,CLR,FEW,0.07,WeatherDisplay:10.37,2013-08-27 08:48:00,
2013-08-27 04:53:00,69.4,64.0,29.62,SW,228,3.5,3.5,83,0.01,CLR,FEW,0.07,WeatherDisplay:10.37,2013-08-27 08:53:00,
2013-08-27 04:58:00,69.3,64.3,29.61,SW,223,3.5,3.5,84,0.01,CLR,FEW,0.07,WeatherDisplay:10.37,2013-08-27 08:58:00,
2013-08-27 05:03:00,69.3,63.9,29.61,SW,222,3.5,3.5,83,0.01,CLR,FEW,0.07,WeatherDisplay:10.37,2013-08-27 09:03:00,
2013-08-27 05:08:00,69.3,64.9,29.61,SW,233,3.5,3.5,86,0.01,CLR,FEW,0.07,WeatherDisplay:10.37,2013-08-27 09:08:00,
2013-08-27 05:13:00,69.5,64.5,29.61,WSW,246,3.5,3.5,84,0.01,CLR,FEW,0.07,WeatherDisplay:10.37,2013-08-27 09:13:00,
2013-08-27 05:18:00,69.6,65.2,29.61,WSW,248,1.2,1.2,86,0.01,CLR,FEW,0.07,WeatherDisplay:10.37,2013-08-27 09:18:00,
2013-08-27 05:23:00,69.6,63.5,29.61,West,278,3.5,3.5,81,0.00,CLR,FEW,0.07,WeatherDisplay:10.37,2013-08-27 09:23:00,
2013-08-27 05:28:00,69.6,63.2,29.61,WNW,289,3.5,3.5,80,0.00,CLR,FEW,0.07,WeatherDisplay:10.37,2013-08-27 09:28:00,
2013-08-27 05:33:00,69.6,63.2,29.61,WNW,286,5.8,5.8,80,0.00,CLR,FEW,0.07,WeatherDisplay:10.37,2013-08-27 09:33:00,
2013-08-27 05:38:00,69.6,61.3,29.61,WNW,301,3.5,3.5,75,0.00,CLR,FEW,0.07,WeatherDisplay:10.37,2013-08-27 09:38:00,
2013-08-27 05:43:00,69.5,60.1,29.62,WNW,298,5.8,5.8,72,0.00,CLR,FEW,0.07,WeatherDisplay:10.37,2013-08-27 09:43:00,
2013-08-27 05:48:00,69.5,59.3,29.62,NNW,340,3.5,3.5,70,0.00,CLR,FEW,0.07,WeatherDisplay:10.37,2013-08-27 09:48:00,
2013-08-27 05:53:00,69.5,57.6,29.62,NNW,327,4.6,4.6,66,0.00,CLR,FEW,0.07,WeatherDisplay:10.37,2013-08-27 09:53:00,
2013-08-27 05:58:00,69.2,56.5,29.62,NNW,329,8.0,8.0,64,0.00,CLR,FEW,0.07,WeatherDisplay:10.37,2013-08-27 09:58:00,
2013-08-27 06:03:00,69.3,53.4,29.62,NNW,336,4.6,4.6,57,0.00,CLR,FEW,0.07,WeatherDisplay:10.37,2013-08-27 10:03:00,
2013-08-27 06:08:00,69.2,50.8,29.62,NW,318,8.1,8.1,52,0.00,CLR,FEW,0.07,WeatherDisplay:10.37,2013-08-27 10:08:00,
2013-08-27 06:13:00,69.1,48.0,29.63,NW,315,11.5,11.5,47,0.00,CLR,FEW,0.07,WeatherDisplay:10.37,2013-08-27 10:13:00,
2013-08-27 06:18:00,69.1,47.4,29.62,NW,314,8.1,8.1,46,0.00,CLR,FEW,0.07,WeatherDisplay:10.37,2013-08-27 10:18:00,
2013-08-27 06:23:00,69.0,49.6,29.63,NNW,348,6.9,6.9,50,0.00,CLR,FEW,0.07,WeatherDisplay:10.37,2013-08-27 10:23:00,
2013-08-27 06:28:00,69.0,45.6,29.63,North,8,7.0,7.0,43,0.00,CLR,FEW,0.07,WeatherDisplay:10.37,2013-08-27 10:28:00,
2013-08-27 06:33:00,69.0,42.3,29.63,North,2,9.2,9.2,38,0.00,CLR,FEW,0.07,WeatherDisplay:10.37,2013-08-27 10:33:00,
2013-08-27 06:38:00,68.9,40.8,29.63,NNW,345,10.4,10.4,36,0.00,CLR,FEW,0.07,WeatherDisplay:10.37,2013-08-27 10:38:00,
2013-08-27 06:43:00,68.9,34.4,29.63,NNW,333,5.0,5.0,28,0.00,CLR,FEW,0.07,WeatherDisplay:10.37,2013-08-27 10:43:00,
2013-08-27 06:48:00,68.8,33.4,29.63,NNW,331,6.9,6.9,27,0.00,CLR,FEW,0.07,WeatherDisplay:10.37,2013-08-27 10:48:00,
2013-08-27 06:53:00,68.8,28.4,29.64,NNW,331,6.9,6.9,22,0.00,CLR,FEW,0.07,WeatherDisplay:10.37,2013-08-27 10:53:00,
2013-08-27 06:58:00,68.8,27.2,29.64,NNW,340,10.4,10.4,21,0.00,CLR,FEW,0.07,WeatherDisplay:10.37,2013-08-27 10:58:00,
2013-08-27 07:03:00,68.9,26.1,29.64,NNW,336,6.9,6.9,20,0.00,CLR,FEW,0.07,WeatherDisplay:10.37,2013-08-27 11:03:00,
2013-08-27 07:08:00,68.9,27.3,29.64,NW,324,8.1,8.1,21,0.00,CLR,FEW,0.07,WeatherDisplay:10.37,2013-08-27 11:08:00,
2013-08-27 07:13:00,68.9,24.9,29.65,NW,318,4.6,4.6,19,0.00,CLR,FEW,0.07,WeatherDisplay:10.37,2013-08-27 11:13:00,
2013-08-27 07:18:00,68.9,20.8,29.65,NNW,331,7.0,7.0,16,0.00,CLR,FEW,0.07,WeatherDisplay:10.37,2013-08-27 11:18:00,
2013-08-27 07:23:00,69.0,19.4,29.65,NNW,342,4.6,4.6,15,0.00,CLR,FEW,0.07,WeatherDisplay:10.37,2013-08-27 11:23:00,
2013-08-27 07:28:00,68.9,10.0,29.65,NW,324,9.2,9.2,10,0.00,CLR,FEW,0.07,WeatherDisplay:10.37,2013-08-27 11:28:00,
2013-08-27 07:33:00,68.8,5.0,29.65,North,2,10.4,10.4,8,0.00,CLR,FEW,0.07,WeatherDisplay:10.37,2013-08-27 11:33:00,
2013-08-27 07:38:00,68.8,2.1,29.65,NNW,347,9.2,9.2,7,0.00,CLR,FEW,0.07,WeatherDisplay:10.37,2013-08-27 11:38:00,
2013-08-27 07:43:00,68.9,5.1,29.65,North,352,7.0,7.0,8,0.00,CLR,FEW,0.07,WeatherDisplay:10.37,2013-08-27 11:43:00,
2013-08-27 07:48:00,68.9,7.7,29.65,NW,312,6.0,6.0,9,0.00,CLR,FEW,0.07,WeatherDisplay:10.37,2013-08-27 11:48:00,
2013-08-27 07:53:00,69.0,16.0,29.65,NNW,331,11.5,11.5,13,0.00,CLR,FEW,0.07,WeatherDisplay:10.37,2013-08-27 11:53:00,
2013-08-27 07:58:00,69.2,21.1,29.66,NW,313,4.0,4.0,16,0.00,CLR,FEW,0.07,WeatherDisplay:10.37,2013-08-27 11:58:00,
2013-08-27 08:03:00,69.3,18.0,29.66,NW,323,5.8,5.8,14,0.00,CLR,FEW,0.07,WeatherDisplay:10.37,2013-08-27 12:03:00,
2013-08-27 08:08:00,69.4,18.1,29.66,NW,315,9.2,9.2,14,0.00,CLR,FEW,0.07,WeatherDisplay:10.37,2013-08-27 12:08:00,
2013-08-27 08:13:00,69.5,21.3,29.66,NNW,340,9.2,9.2,16,0.00,CLR,FEW,0.07,WeatherDisplay:10.37,2013-08-27 12:13:00,
2013-08-27 08:18:00,69.5,19.8,29.66,NNW,344,3.5,3.5,15,0.00,CLR,FEW,0.07,WeatherDisplay:10.37,2013-08-27 12:18:00,
2013-08-27 08:23:00,69.6,8.2,29.67,North,2,6.0,6.0,9,0.00,CLR,FEW,0.07,WeatherDisplay:10.37,2013-08-27 12:23:00,
2013-08-27 08:28:00,69.7,-4.4,29.67,North,0,6.9,6.9,5,0.00,CLR,FEW,0.07,WeatherDisplay:10.37,2013-08-27 12:28:00,
2013-08-27 08:33:00,69.6,69.6,29.67,NNW,337,8.1,8.1,100,0.00,CLR,FEW,0.07,WeatherDisplay:10.37,2013-08-27 12:33:00,
2013-08-27 08:38:00,69.7,69.7,29.67,North,350,5.8,5.8,100,0.00,CLR,FEW,0.07,WeatherDisplay:10.37,2013-08-27 12:38:00,
2013-08-27 08:43:00,69.8,69.8,29.67,North,356,6.9,6.9,100,0.00,CLR,FEW,0.07,WeatherDisplay:10.37,2013-08-27 12:43:00,
2013-08-27 08:48:00,69.9,69.9,29.67,NNW,337,4.6,4.6,100,0.00,CLR,FEW,0.07,WeatherDisplay:10.37,2013-08-27 12:48:00,
2013-08-27 08:53:00,69.9,69.9,29.67,North,2,10.4,10.4,100,0.00,CLR,FEW,0.07,WeatherDisplay:10.37,2013-08-27 12:53:00,
2013-08-27 08:58:00,70.1,70.1,29.69,North,354,4.6,4.6,100,0.00,CLR,FEW,0.07,WeatherDisplay:10.37,2013-08-27 12:58:00,
2013-08-27 09:03:00,70.1,70.1,29.67,NW,325,6.9,6.9,100,0.00,CLR,FEW,0.07,WeatherDisplay:10.37,2013-08-27 13:03:00,
2013-08-27 09:08:00,70.2,70.2,29.67,NNW,336,3.5,3.5,100,0.00,CLR,FEW,0.07,WeatherDisplay:10.37,2013-08-27 13:08:00,
2013-08-27 09:13:00,70.3,70.3,29.68,North,352,6.9,6.9,100,0.00,CLR,FEW,0.07,WeatherDisplay:10.37,2013-08-27 13:13:00,
2013-08-27 09:18:00,70.3,70.3,29.68,NNW,332,6.9,6.9,100,0.00,CLR,FEW,0.07,WeatherDisplay:10.37,2013-08-27 13:18:00,
2013-08-27 09:23:00,70.4,70.4,29.68,North,0,6.0,6.0,100,0.00,CLR,FEW,0.07,WeatherDisplay:10.37,2013-08-27 13:23:00,
2013-08-27 09:28:00,70.5,70.5,29.68,NNW,344,4.6,4.6,100,0.00,CLR,FEW,0.07,WeatherDisplay:10.37,2013-08-27 13:28:00,
2013-08-27 09:33:00,70.4,70.4,29.67,North,0,7.0,7.0,100,0.00,CLR,FEW,0.07,WeatherDisplay:10.37,2013-08-27 13:33:00,
2013-08-27 09:38:00,70.4,70.4,29.67,North,356,9.2,9.2,100,0.00,CLR,FEW,0.07,WeatherDisplay:10.37,2013-08-27 13:38:00,
2013-08-27 09:43:00,70.4,70.4,29.67,NNE,18,11.5,11.5,100,0.00,CLR,FEW,0.07,WeatherDisplay:10.37,2013-08-27 13:43:00,
2013-08-27 09:48:00,70.7,70.7,29.67,North,1,5.8,5.8,100,0.00,CLR,FEW,0.07,WeatherDisplay:10.37,2013-08-27 13:48:00,
2013-08-27 09:53:00,71.1,71.1,29.67,NNW,336,8.1,8.1,100,0.00,CLR,FEW,0.07,WeatherDisplay:10.37,2013-08-27 13:53:00,
2013-08-27 09:58:00,71.7,71.7,29.67,NNW,337,11.5,11.5,100,0.00,CLR,FEW,0.07,WeatherDisplay:10.37,2013-08-27 13:58:00,
2013-08-27 10:03:00,72.1,72.1,29.67,NW,321,11.0,11.0,100,0.00,CLR,FEW,0.07,WeatherDisplay:10.37,2013-08-27 14:03:00,
2013-08-27 10:08:00,72.4,72.4,29.67,NNW,338,13.8,13.8,100,0.00,CLR,FEW,0.07,WeatherDisplay:10.37,2013-08-27 14:08:00,
2013-08-27 10:13:00,72.5,66.7,29.68,North,0,10.4,10.4,82,0.00,CLR,FEW,0.07,WeatherDisplay:10.37,2013-08-27 14:13:00,
2013-08-27 10:18:00,72.9,60.4,29.68,NNW,345,8.1,8.1,65,0.00,CLR,FEW,0.07,WeatherDisplay:10.37,2013-08-27 14:18:00,
2013-08-27 10:23:00,73.3,50.1,29.68,North,355,13.8,13.8,44,0.00,CLR,FEW,0.07,WeatherDisplay:10.37,2013-08-27 14:23:00,
2013-08-27 10:28:00,73.3,22.8,29.68,NW,320,10.4,10.4,15,0.00,CLR,FEW,0.07,WeatherDisplay:10.37,2013-08-27 14:28:00,
2013-08-27 10:33:00,73.5,73.5,29.68,NNW,338,13.8,13.8,100,0.00,CLR,FEW,0.07,WeatherDisplay:10.37,2013-08-27 14:33:00,
2013-08-27 10:38:00,73.6,73.6,29.68,NW,317,9.0,9.0,100,0.00,CLR,FEW,0.07,WeatherDisplay:10.37,2013-08-27 14:38:00,
2013-08-27 10:43:00,73.8,73.8,29.68,North,7,13.8,13.8,100,0.01,RA,FEW,0.08,WeatherDisplay:10.37,2013-08-27 14:43:00,
2013-08-27 10:48:00,73.8,73.8,29.69,North,7,13.8,13.8,100,0.01,,FEW,0.08,WeatherDisplay:10.37,2013-08-27 14:48:00,
2013-08-27 10:53:00,73.8,73.8,29.69,NNE,30,11.5,11.5,100,0.01,CLR,FEW,0.08,WeatherDisplay:10.37,2013-08-27 14:53:00,
2013-08-27 10:58:00,74.2,74.2,29.68,NNW,341,9.2,9.2,100,0.01,CLR,FEW,0.08,WeatherDisplay:10.37,2013-08-27 14:58:00,
2013-08-27 11:03:00,74.7,74.7,29.68,NNW,331,12.7,12.7,100,0.01,CLR,FEW,0.08,WeatherDisplay:10.37,2013-08-27 15:03:00,
2013-08-27 11:08:00,74.9,74.9,29.68,North,3,9.2,9.2,100,0.01,CLR,FEW,0.08,WeatherDisplay:10.37,2013-08-27 15:08:00,
2013-08-27 11:13:00,74.8,74.8,29.68,NNE,13,21.9,21.9,100,0.01,CLR,FEW,0.08,WeatherDisplay:10.37,2013-08-27 15:13:00,
2013-08-27 11:18:00,74.9,74.9,29.68,North,2,10.4,10.4,100,0.01,CLR,FEW,0.08,WeatherDisplay:10.37,2013-08-27 15:18:00,
2013-08-27 11:23:00,74.8,74.8,29.69,North,0,15.0,15.0,100,0.01,CLR,FEW,0.08,WeatherDisplay:10.37,2013-08-27 15:23:00,
2013-08-27 11:28:00,74.7,74.7,29.69,North,355,13.8,13.8,100,0.01,CLR,FEW,0.08,WeatherDisplay:10.37,2013-08-27 15:28:00,
2013-08-27 11:33:00,75.0,75.0,29.68,North,7,15.0,15.0,100,0.01,CLR,FEW,0.08,WeatherDisplay:10.37,2013-08-27 15:33:00,
2013-08-27 11:38:00,75.3,75.3,29.68,NNW,344,12.7,12.7,100,0.01,CLR,FEW,0.08,WeatherDisplay:10.37,2013-08-27 15:38:00,
2013-08-27 11:43:00,75.7,75.7,29.70,NNW,329,6.9,6.9,100,0.00,CLR,FEW,0.08,WeatherDisplay:10.37,2013-08-27 15:43:00,
2013-08-27 11:48:00,75.9,75.9,29.70,North,4,11.5,11.5,100,0.00,CLR,FEW,0.08,WeatherDisplay:10.37,2013-08-27 15:48:00,
2013-08-27 11:53:00,75.6,75.6,29.69,NNW,347,13.8,13.8,100,0.00,CLR,FEW,0.08,WeatherDisplay:10.37,2013-08-27 15:53:00,
2013-08-27 11:58:00,75.7,75.7,29.68,NNE,15,11.5,11.5,100,0.00,CLR,FEW,0.08,WeatherDisplay:10.37,2013-08-27 15:58:00,
2013-08-27 12:03:00,75.8,75.8,29.69,NNW,347,15.0,15.0,100,0.00,CLR,FEW,0.08,WeatherDisplay:10.37,2013-08-27 16:03:00,
2013-08-27 12:08:00,75.8,75.8,29.69,NNE,24,19.6,19.6,100,0.00,CLR,FEW,0.08,WeatherDisplay:10.37,2013-08-27 16:08:00,
2013-08-27 12:13:00,75.9,75.9,29.68,North,11,19.6,19.6,100,0.00,CLR,FEW,0.08,WeatherDisplay:10.37,2013-08-27 16:13:00,
2013-08-27 12:18:00,76.0,76.0,29.69,North,0,11.0,11.0,100,0.00,CLR,FEW,0.08,WeatherDisplay:10.37,2013-08-27 16:18:00,
2013-08-27 12:23:00,76.4,76.4,29.69,North,357,11.5,11.5,100,0.00,CLR,FEW,0.08,WeatherDisplay:10.37,2013-08-27 16:23:00,
2013-08-27 12:28:00,76.8,76.8,29.69,NW,320,11.5,11.5,100,0.00,CLR,FEW,0.08,WeatherDisplay:10.37,2013-08-27 16:28:00,
2013-08-27 12:33:00,76.9,76.9,29.69,NNE,13,12.7,12.7,100,0.00,CLR,FEW,0.08,WeatherDisplay:10.37,2013-08-27 16:33:00,
2013-08-27 12:38:00,76.9,76.9,29.69,NNE,14,15.0,15.0,100,0.00,CLR,FEW,0.08,WeatherDisplay:10.37,2013-08-27 16:38:00,
2013-08-27 12:43:00,77.4,77.4,29.69,North,2,12.0,12.0,100,0.00,CLR,FEW,0.08,WeatherDisplay:10.37,2013-08-27 16:43:00,
2013-08-27 12:48:00,77.7,77.7,29.69,NNW,341,9.2,9.2,100,0.00,CLR,FEW,0.08,WeatherDisplay:10.37,2013-08-27 16:48:00,
2013-08-27 12:53:00,77.8,77.2,29.69,NW,318,11.5,11.5,98,0.00,CLR,FEW,0.08,WeatherDisplay:10.37,2013-08-27 16:53:00,
2013-08-27 12:58:00,77.9,76.4,29.69,NNW,338,13.8,13.8,95,0.00,CLR,FEW,0.08,WeatherDisplay:10.37,2013-08-27 16:58:00,
2013-08-27 13:03:00,77.6,75.7,29.69,NNW,347,10.4,10.4,94,0.00,CLR,FEW,0.08,WeatherDisplay:10.37,2013-08-27 17:03:00,
2013-08-27 13:08:00,77.9,76.7,29.68,NW,313,6.9,6.9,96,0.00,CLR,FEW,0.08,WeatherDisplay:10.37,2013-08-27 17:08:00,
2013-08-27 13:13:00,78.0,77.1,29.68,North,359,16.1,16.1,97,0.00,CLR,FEW,0.08,WeatherDisplay:10.37,2013-08-27 17:13:00,
2013-08-27 13:18:00,78.4,77.2,29.68,North,0,4.6,4.6,96,0.00,CLR,FEW,0.08,WeatherDisplay:10.37,2013-08-27 17:18:00,
2013-08-27 13:23:00,78.0,76.5,29.68,NNE,19,8.1,8.1,95,0.00,CLR,FEW,0.08,WeatherDisplay:10.37,2013-08-27 17:23:00,
2013-08-27 13:28:00,78.2,77.6,29.68,North,7,6.9,6.9,98,0.00,CLR,FEW,0.08,WeatherDisplay:10.37,2013-08-27 17:28:00,
2013-08-27 13:33:00,78.7,77.5,29.68,North,2,12.7,12.7,96,0.00,CLR,FEW,0.08,WeatherDisplay:10.37,2013-08-27 17:33:00,
2013-08-27 13:38:00,78.7,77.5,29.68,North,350,10.4,10.4,96,0.00,CLR,FEW,0.08,WeatherDisplay:10.37,2013-08-27 17:38:00,
2013-08-27 13:43:00,78.7,77.1,29.69,NNE,15,15.0,15.0,95,0.00,CLR,FEW,0.08,WeatherDisplay:10.37,2013-08-27 17:43:00,
2013-08-27 13:48:00,78.5,77.3,29.68,North,2,9.2,9.2,96,0.00,CLR,FEW,0.08,WeatherDisplay:10.37,2013-08-27 17:48:00,
2013-08-27 13:53:00,78.7,78.1,29.68,NE,44,11.5,11.5,98,0.00,CLR,FEW,0.08,WeatherDisplay:10.37,2013-08-27 17:53:00,
2013-08-27 13:58:00,78.9,78.0,29.68,North,351,9.2,9.2,97,0.00,CLR,FEW,0.08,WeatherDisplay:10.37,2013-08-27 17:58:00,
2013-08-27 14:03:00,79.3,78.4,29.69,NE,42,6.9,6.9,97,0.00,CLR,FEW,0.08,WeatherDisplay:10.37,2013-08-27 18:03:00,
2013-08-27 14:08:00,79.4,78.2,29.68,NNE,18,8.1,8.1,96,0.00,CLR,FEW,0.08,WeatherDisplay:10.37,2013-08-27 18:08:00,
2013-08-27 14:13:00,79.6,78.0,29.67,NNW,345,8.0,8.0,95,0.00,CLR,FEW,0.08,WeatherDisplay:10.37,2013-08-27 18:13:00,
2013-08-27 14:18:00,79.9,78.0,29.67,NNE,24,12.7,12.7,94,0.00,CLR,FEW,0.08,WeatherDisplay:10.37,2013-08-27 18:18:00,
2013-08-27 14:23:00,79.6,77.7,29.68,NNE,15,11.5,11.5,94,0.00,CLR,FEW,0.08,WeatherDisplay:10.37,2013-08-27 18:23:00,
2013-08-27 14:28:00,79.8,77.9,29.67,NE,37,9.2,9.2,94,0.00,CLR,FEW,0.08,WeatherDisplay:10.37,2013-08-27 18:28:00,
2013-08-27 14:33:00,79.9,78.0,29.67,NNE,29,6.9,6.9,94,0.00,CLR,FEW,0.08,WeatherDisplay:10.37,2013-08-27 18:33:00,
2013-08-27 14:38:00,79.8,77.3,29.67,North,9,10.4,10.4,92,0.00,CLR,FEW,0.08,WeatherDisplay:10.37,2013-08-27 18:38:00,
2013-08-27 14:43:00,80.1,77.9,29.67,NNE,13,6.0,6.0,93,0.00,CLR,FEW,0.08,WeatherDisplay:10.37,2013-08-27 18:43:00,
2013-08-27 14:48:00,80.1,77.6,29.67,NNW,348,6.9,6.9,92,0.00,CLR,FEW,0.08,WeatherDisplay:10.37,2013-08-27 18:48:00,
2013-08-27 14:53:00,80.3,77.4,29.66,NNE,21,9.2,9.2,91,0.00,CLR,FEW,0.08,WeatherDisplay:10.37,2013-08-27 18:53:00,
2013-08-27 14:58:00,80.3,77.4,29.66,NNE,23,7.0,7.0,91,0.00,CLR,FEW,0.08,WeatherDisplay:10.37,2013-08-27 18:58:00,
2013-08-27 15:03:00,80.4,77.5,29.66,ENE,70,7.0,7.0,91,0.00,CLR,FEW,0.08,WeatherDisplay:10.37,2013-08-27 19:03:00,
2013-08-27 15:08:00,80.3,77.1,29.66,NNE,21,5.8,5.8,90,0.00,CLR,FEW,0.08,WeatherDisplay:10.37,2013-08-27 19:08:00,
2013-08-27 15:13:00,80.5,77.0,29.66,North,354,11.5,11.5,89,0.00,CLR,FEW,0.08,WeatherDisplay:10.37,2013-08-27 19:13:00,
2013-08-27 15:18:00,80.4,76.5,29.66,North,4,5.8,5.8,88,0.00,CLR,FEW,0.08,WeatherDisplay:10.37,2013-08-27 19:18:00,
2013-08-27 15:23:00,80.3,76.4,29.66,NNE,33,6.9,6.9,88,0.00,CLR,FEW,0.08,WeatherDisplay:10.37,2013-08-27 19:23:00,
2013-08-27 15:28:00,80.3,76.8,29.66,NNE,33,12.7,12.7,89,0.00,CLR,FEW,0.08,WeatherDisplay:10.37,2013-08-27 19:28:00,
2013-08-27 15:33:00,80.4,77.2,29.66,NNE,16,9.2,9.2,90,0.00,CLR,FEW,0.08,WeatherDisplay:10.37,2013-08-27 19:33:00,
2013-08-27 15:38:00,80.2,77.3,29.65,North,8,6.0,6.0,91,0.00,CLR,FEW,0.08,WeatherDisplay:10.37,2013-08-27 19:38:00,
2013-08-27 15:43:00,80.3,77.1,29.65,North,5,11.5,11.5,90,0.00,CLR,FEW,0.08,WeatherDisplay:10.37,2013-08-27 19:43:00,
2013-08-27 15:48:00,80.1,77.2,29.65,North,10,0.0,0.0,91,0.00,CLR,FEW,0.08,WeatherDisplay:10.37,2013-08-27 19:48:00,
2013-08-27 15:53:00,80.3,77.4,29.65,NNE,33,9.2,9.2,91,0.00,CLR,FEW,0.08,WeatherDisplay:10.37,2013-08-27 19:53:00,
2013-08-27 15:58:00,80.3,77.4,29.65,ENE,66,6.0,6.0,91,0.00,CLR,FEW,0.08,WeatherDisplay:10.37,2013-08-27 19:58:00,
2013-08-27 16:03:00,80.8,77.9,29.65,North,353,6.9,6.9,91,0.00,CLR,FEW,0.08,WeatherDisplay:10.37,2013-08-27 20:03:00,
2013-08-27 16:08:00,81.1,78.2,29.65,NNW,345,8.1,8.1,91,0.00,CLR,FEW,0.08,WeatherDisplay:10.37,2013-08-27 20:08:00,
2013-08-27 16:13:00,81.2,77.6,29.65,NW,309,6.9,6.9,89,0.00,CLR,FEW,0.08,WeatherDisplay:10.37,2013-08-27 20:13:00,
2013-08-27 16:18:00,81.1,77.5,29.65,NNE,32,5.8,5.8,89,0.00,CLR,FEW,0.08,WeatherDisplay:10.37,2013-08-27 20:18:00,
2013-08-27 16:23:00,81.1,77.5,29.65,NNW,327,3.5,3.5,89,0.00,CLR,FEW,0.08,WeatherDisplay:10.37,2013-08-27 20:23:00,
2013-08-27 16:28:00,81.4,77.5,29.65,NNE,14,6.9,6.9,88,0.00,CLR,FEW,0.08,WeatherDisplay:10.37,2013-08-27 20:28:00,
2013-08-27 16:33:00,81.1,77.9,29.65,NNW,347,7.0,7.0,90,0.00,CLR,FEW,0.08,WeatherDisplay:10.37,2013-08-27 20:33:00,
2013-08-27 16:38:00,81.3,77.7,29.65,North,8,6.0,6.0,89,0.00,CLR,FEW,0.08,WeatherDisplay:10.37,2013-08-27 20:38:00,
2013-08-27 16:43:00,81.3,77.4,29.65,NE,35,5.8,5.8,88,0.00,CLR,FEW,0.08,WeatherDisplay:10.37,2013-08-27 20:43:00,
2013-08-27 16:48:00,81.4,77.8,29.65,NW,305,9.2,9.2,89,0.00,CLR,FEW,0.08,WeatherDisplay:10.37,2013-08-27 20:48:00,
2013-08-27 16:53:00,81.5,77.9,29.65,NNW,340,8.1,8.1,89,0.00,CLR,FEW,0.08,WeatherDisplay:10.37,2013-08-27 20:53:00,
2013-08-27 16:58:00,81.5,77.6,29.65,North,9,8.1,8.1,88,0.00,CLR,FEW,0.08,WeatherDisplay:10.37,2013-08-27 20:58:00,
2013-08-27 17:03:00,81.6,78.0,29.65,NNE,14,6.0,6.0,89,0.00,CLR,FEW,0.08,WeatherDisplay:10.37,2013-08-27 21:03:00,
2013-08-27 17:08:00,81.8,78.2,29.65,NNW,328,8.1,8.1,89,0.00,CLR,FEW,0.08,WeatherDisplay:10.37,2013-08-27 21:08:00,
2013-08-27 17:13:00,81.7,77.5,29.65,North,355,7.0,7.0,87,0.00,CLR,FEW,0.08,WeatherDisplay:10.37,2013-08-27 21:13:00,
2013-08-27 17:18:00,81.4,77.2,29.65,North,9,8.1,8.1,87,0.00,CLR,FEW,0.08,WeatherDisplay:10.37,2013-08-27 21:18:00,
2013-08-27 17:23:00,81.3,77.7,29.65,NNE,21,6.9,6.9,89,0.00,CLR,FEW,0.08,WeatherDisplay:10.37,2013-08-27 21:23:00,
2013-08-27 17:28:00,81.4,78.2,29.65,NNW,340,4.6,4.6,90,0.00,CLR,FEW,0.08,WeatherDisplay:10.37,2013-08-27 21:28:00,
2013-08-27 17:33:00,81.3,78.1,29.65,NNE,15,8.1,8.1,90,0.00,CLR,FEW,0.08,WeatherDisplay:10.37,2013-08-27 21:33:00,
2013-08-27 17:38:00,81.4,78.2,29.65,NE,38,10.4,10.4,90,0.00,CLR,FEW,0.08,WeatherDisplay:10.37,2013-08-27 21:38:00,
2013-08-27 17:43:00,81.2,78.0,29.65,NE,38,6.9,6.9,90,0.00,CLR,FEW,0.08,WeatherDisplay:10.37,2013-08-27 21:43:00,
2013-08-27 17:48:00,81.1,78.2,29.65,NNE,31,5.0,5.0,91,0.00,CLR,FEW,0.08,WeatherDisplay:10.37,2013-08-27 21:48:00,
2013-08-27 17:53:00,81.0,78.1,29.65,North,2,8.1,8.1,91,0.00,CLR,FEW,0.08,WeatherDisplay:10.37,2013-08-27 21:53:00,
2013-08-27 17:58:00,80.7,78.2,29.65,NNE,29,6.0,6.0,92,0.00,CLR,FEW,0.08,WeatherDisplay:10.37,2013-08-27 21:58:00,
2013-08-27 18:03:00,80.6,78.4,29.65,North,2,3.5,3.5,93,0.00,CLR,FEW,0.08,WeatherDisplay:10.37,2013-08-27 22:03:00,
2013-08-27 18:08:00,80.6,78.1,29.65,North,2,3.5,3.5,92,0.00,CLR,FEW,0.08,WeatherDisplay:10.37,2013-08-27 22:08:00,
2013-08-27 18:13:00,80.8,78.6,29.66,NNW,342,5.8,5.8,93,0.00,CLR,FEW,0.08,WeatherDisplay:10.37,2013-08-27 22:13:00,
2013-08-27 18:18:00,80.9,78.0,29.65,North,349,3.5,3.5,91,0.00,CLR,FEW,0.08,WeatherDisplay:10.37,2013-08-27 22:18:00,
2013-08-27 18:23:00,81.0,77.4,29.66,NNW,334,5.8,5.8,89,0.00,CLR,FEW,0.08,WeatherDisplay:10.37,2013-08-27 22:23:00,
2013-08-27 18:28:00,80.8,77.3,29.66,North,1,5.8,5.8,89,0.00,CLR,FEW,0.08,WeatherDisplay:10.37,2013-08-27 22:28:00,
2013-08-27 18:33:00,80.5,77.6,29.65,North,0,7.0,7.0,91,0.00,CLR,FEW,0.08,WeatherDisplay:10.37,2013-08-27 22:33:00,
2013-08-27 18:38:00,80.4,77.9,29.65,North,356,6.9,6.9,92,0.00,CLR,FEW,0.08,WeatherDisplay:10.37,2013-08-27 22:38:00,
2013-08-27 18:43:00,80.2,77.7,29.65,North,358,5.8,5.8,92,0.00,CLR,FEW,0.08,WeatherDisplay:10.37,2013-08-27 22:43:00,
2013-08-27 18:48:00,80.2,78.3,29.66,North,0,5.8,5.8,94,0.00,CLR,FEW,0.08,WeatherDisplay:10.37,2013-08-27 22:48:00,
2013-08-27 18:53:00,80.2,78.3,29.66,North,357,5.0,5.0,94,0.00,CLR,FEW,0.08,WeatherDisplay:10.37,2013-08-27 22:53:00,
2013-08-27 18:58:00,80.0,78.4,29.66,North,356,3.5,3.5,95,0.00,CLR,FEW,0.08,WeatherDisplay:10.37,2013-08-27 22:58:00,
2013-08-27 19:03:00,79.8,78.6,29.66,North,354,3.5,3.5,96,0.00,CLR,FEW,0.08,WeatherDisplay:10.37,2013-08-27 23:03:00,
2013-08-27 19:08:00,79.7,78.5,29.67,North,354,4.6,4.6,96,0.00,CLR,FEW,0.08,WeatherDisplay:10.37,2013-08-27 23:08:00,
2013-08-27 19:13:00,79.5,78.3,29.66,North,354,3.5,3.5,96,0.00,CLR,FEW,0.08,WeatherDisplay:10.37,2013-08-27 23:13:00,
2013-08-27 19:18:00,79.4,78.8,29.66,North,354,2.3,2.3,98,0.00,CLR,FEW,0.08,WeatherDisplay:10.37,2013-08-27 23:18:00,
2013-08-27 19:23:00,79.3,78.7,29.66,North,354,1.2,0.0,98,0.00,CLR,FEW,0.08,WeatherDisplay:10.37,2013-08-27 23:23:00,
2013-08-27 19:28:00,79.1,78.5,29.66,North,354,2.3,2.3,98,0.00,CLR,FEW,0.08,WeatherDisplay:10.37,2013-08-27 23:28:00,
2013-08-27 19:33:00,79.0,78.7,29.66,North,354,2.3,2.3,99,0.00,CLR,FEW,0.08,WeatherDisplay:10.37,2013-08-27 23:33:00,
2013-08-27 19:38:00,78.9,78.9,29.67,North,354,1.2,1.2,100,0.00,CLR,FEW,0.08,WeatherDisplay:10.37,2013-08-27 23:38:00,
2013-08-27 19:43:00,78.9,78.9,29.67,North,354,2.3,2.3,100,0.00,CLR,FEW,0.08,WeatherDisplay:10.37,2013-08-27 23:43:00,
2013-08-27 19:48:00,78.7,78.7,29.68,North,354,2.3,2.3,100,0.00,CLR,FEW,0.08,WeatherDisplay:10.37,2013-08-27 23:48:00,
2013-08-27 19:53:00,78.5,78.5,29.68,North,354,2.3,2.3,100,0.00,CLR,FEW,0.08,WeatherDisplay:10.37,2013-08-27 23:53:00,
2013-08-27 19:58:00,78.3,78.3,29.68,North,354,0.0,0.0,100,0.00,CLR,FEW,0.08,WeatherDisplay:10.37,2013-08-27 23:58:00,
2013-08-27 20:03:00,78.2,78.2,29.68,North,354,0.0,0.0,100,0.00,CLR,FEW,0.08,WeatherDisplay:10.37,2013-08-28 00:03:00,
2013-08-27 20:08:00,78.2,78.2,29.68,North,354,0.0,0.0,100,0.00,CLR,FEW,0.08,WeatherDisplay:10.37,2013-08-28 00:08:00,
2013-08-27 20:13:00,78.1,78.1,29.67,North,354,0.0,0.0,100,0.00,CLR,FEW,0.08,WeatherDisplay:10.37,2013-08-28 00:13:00,
2013-08-27 20:18:00,78.1,78.1,29.68,North,354,0.0,0.0,100,0.00,CLR,FEW,0.08,WeatherDisplay:10.37,2013-08-28 00:18:00,
2013-08-27 20:23:00,78.0,78.0,29.68,North,354,0.0,0.0,100,0.00,CLR,FEW,0.08,WeatherDisplay:10.37,2013-08-28 00:23:00,
2013-08-27 20:28:00,77.8,77.8,29.68,North,354,0.0,0.0,100,0.00,CLR,FEW,0.08,WeatherDisplay:10.37,2013-08-28 00:28:00,
2013-08-27 20:33:00,77.6,77.6,29.68,North,354,0.0,0.0,100,0.00,CLR,FEW,0.08,WeatherDisplay:10.37,2013-08-28 00:33:00,
2013-08-27 20:38:00,77.5,77.5,29.68,North,354,0.0,0.0,100,0.00,CLR,FEW,0.08,WeatherDisplay:10.37,2013-08-28 00:38:00,
2013-08-27 20:43:00,77.3,77.3,29.68,North,354,0.0,0.0,100,0.00,CLR,FEW,0.08,WeatherDisplay:10.37,2013-08-28 00:43:00,
2013-08-27 20:48:00,77.2,77.2,29.68,North,354,0.0,0.0,100,0.00,CLR,FEW,0.08,WeatherDisplay:10.37,2013-08-28 00:48:00,
2013-08-27 20:53:00,77.2,77.2,29.68,North,354,0.0,0.0,100,0.00,CLR,FEW,0.08,WeatherDisplay:10.37,2013-08-28 00:53:00,
2013-08-27 20:58:00,77.1,77.1,29.68,North,354,0.0,0.0,100,0.00,CLR,FEW,0.08,WeatherDisplay:10.37,2013-08-28 00:58:00,
2013-08-27 21:03:00,77.0,77.0,29.68,North,354,0.0,0.0,100,0.00,CLR,FEW,0.08,WeatherDisplay:10.37,2013-08-28 01:03:00,
2013-08-27 21:08:00,76.8,76.8,29.67,North,354,1.2,1.2,100,0.00,CLR,FEW,0.08,WeatherDisplay:10.37,2013-08-28 01:08:00,
2013-08-27 21:13:00,76.5,76.5,29.68,North,354,0.0,0.0,100,0.00,CLR,FEW,0.08,WeatherDisplay:10.37,2013-08-28 01:13:00,
2013-08-27 21:18:00,76.3,76.3,29.67,North,354,0.0,0.0,100,0.00,CLR,FEW,0.08,WeatherDisplay:10.37,2013-08-28 01:18:00,
2013-08-27 21:23:00,76.1,76.1,29.68,North,354,0.0,0.0,100,0.00,CLR,FEW,0.08,WeatherDisplay:10.37,2013-08-28 01:23:00,
2013-08-27 21:28:00,75.9,75.9,29.67,North,354,0.0,0.0,100,0.00,CLR,FEW,0.08,WeatherDisplay:10.37,2013-08-28 01:28:00,
2013-08-27 21:33:00,75.8,75.8,29.68,North,354,0.0,0.0,100,0.00,CLR,FEW,0.08,WeatherDisplay:10.37,2013-08-28 01:33:00,
2013-08-27 21:38:00,75.7,75.7,29.68,North,354,0.0,0.0,100,0.00,CLR,FEW,0.08,WeatherDisplay:10.37,2013-08-28 01:38:00,
2013-08-27 21:43:00,75.6,75.6,29.68,North,354,0.0,0.0,100,0.00,CLR,FEW,0.08,WeatherDisplay:10.37,2013-08-28 01:43:00,
2013-08-27 21:48:00,75.6,75.6,29.68,North,354,0.0,0.0,100,0.00,CLR,FEW,0.08,WeatherDisplay:10.37,2013-08-28 01:48:00,
2013-08-27 21:53:00,75.6,75.6,29.68,North,354,0.0,0.0,100,0.00,CLR,FEW,0.08,WeatherDisplay:10.37,2013-08-28 01:53:00,
2013-08-27 21:58:00,75.5,75.5,29.68,North,354,0.0,0.0,100,0.00,CLR,FEW,0.08,WeatherDisplay:10.37,2013-08-28 01:58:00,
2013-08-27 22:03:00,75.3,75.3,29.69,North,354,0.0,0.0,100,0.00,CLR,FEW,0.08,WeatherDisplay:10.37,2013-08-28 02:03:00,
2013-08-27 22:08:00,75.1,75.1,29.69,North,354,1.2,1.2,100,0.00,CLR,FEW,0.08,WeatherDisplay:10.37,2013-08-28 02:08:00,
2013-08-27 22:13:00,74.9,74.9,29.69,North,354,0.0,0.0,100,0.00,CLR,FEW,0.08,WeatherDisplay:10.37,2013-08-28 02:13:00,
2013-08-27 22:18:00,74.6,74.6,29.69,North,354,0.0,0.0,100,0.00,CLR,FEW,0.08,WeatherDisplay:10.37,2013-08-28 02:18:00,
2013-08-27 22:23:00,74.3,74.3,29.70,North,354,0.0,0.0,100,0.00,CLR,FEW,0.08,WeatherDisplay:10.37,2013-08-28 02:23:00,
2013-08-27 22:28:00,74.1,74.1,29.70,North,354,1.2,0.0,100,0.00,CLR,FEW,0.08,WeatherDisplay:10.37,2013-08-28 02:28:00,
2013-08-27 22:33:00,73.9,73.9,29.70,North,354,0.0,0.0,100,0.00,CLR,FEW,0.08,WeatherDisplay:10.37,2013-08-28 02:33:00,
2013-08-27 22:38:00,73.9,73.9,29.70,North,354,0.0,0.0,100,0.00,CLR,FEW,0.08,WeatherDisplay:10.37,2013-08-28 02:38:00,
2013-08-27 22:43:00,73.7,73.7,29.70,North,354,0.0,0.0,100,0.00,CLR,FEW,0.08,WeatherDisplay:10.37,2013-08-28 02:43:00,
2013-08-27 22:48:00,73.4,73.4,29.70,North,354,0.0,0.0,100,0.00,CLR,FEW,0.08,WeatherDisplay:10.37,2013-08-28 02:48:00,
2013-08-27 22:53:00,73.3,73.3,29.70,North,354,0.0,0.0,100,0.00,CLR,FEW,0.08,WeatherDisplay:10.37,2013-08-28 02:53:00,
2013-08-27 22:58:00,73.2,73.2,29.70,North,354,0.0,0.0,100,0.00,CLR,FEW,0.08,WeatherDisplay:10.37,2013-08-28 02:58:00,
2013-08-27 23:03:00,73.2,73.2,29.70,North,354,0.0,0.0,100,0.00,CLR,FEW,0.08,WeatherDisplay:10.37,2013-08-28 03:03:00,
2013-08-27 23:08:00,73.2,73.2,29.70,North,354,0.0,0.0,100,0.00,CLR,FEW,0.08,WeatherDisplay:10.37,2013-08-28 03:08:00,
2013-08-27 23:13:00,73.2,73.2,29.70,North,354,0.0,0.0,100,0.00,CLR,FEW,0.08,WeatherDisplay:10.37,2013-08-28 03:13:00,
2013-08-27 23:18:00,73.0,99.9,29.70,North,354,0.0,0.0,0,0.00,CLR,FEW,0.08,WeatherDisplay:10.37,2013-08-28 03:18:00,
2013-08-27 23:23:00,72.9,8.1,29.70,North,354,0.0,0.0,8,0.00,CLR,FEW,0.08,WeatherDisplay:10.37,2013-08-28 03:23:00,
2013-08-27 23:28:00,72.7,20.7,29.70,North,354,0.0,0.0,14,0.00,CLR,FEW,0.08,WeatherDisplay:10.37,2013-08-28 03:28:00,
2013-08-27 23:33:00,72.5,35.6,29.70,North,354,0.0,0.0,26,0.00,CLR,FEW,0.08,WeatherDisplay:10.37,2013-08-28 03:33:00,
2013-08-27 23:38:00,72.4,40.9,29.70,North,354,0.0,0.0,32,0.00,CLR,FEW,0.08,WeatherDisplay:10.37,2013-08-28 03:38:00,
2013-08-27 23:43:00,72.3,46.6,29.70,North,354,0.0,0.0,40,0.00,CLR,FEW,0.08,WeatherDisplay:10.37,2013-08-28 03:43:00,
2013-08-27 23:48:00,72.2,50.3,29.70,North,354,0.0,0.0,46,0.00,CLR,FEW,0.08,WeatherDisplay:10.37,2013-08-28 03:48:00,
2013-08-27 23:53:00,72.1,53.0,29.69,North,354,0.0,0.0,51,0.00,CLR,FEW,0.08,WeatherDisplay:10.37,2013-08-28 03:53:00,
2013-08-27 23:58:00,72.1,54.5,29.70,North,354,0.0,0.0,54,0.00,CLR,FEW,0.08,WeatherDisplay:10.37,2013-08-28 03:58:00,